TimeAKDT,TemperatureF,Dew PointF,Humidity,Sea Level PressureIn,VisibilityMPH,Wind Direction,Wind SpeedMPH,Gust SpeedMPH,PrecipitationIn,Events,Conditions,WindDirDegrees,DateUTC
12:16 AM,37.4,30.2,75,29.71,10.0,Calm,Calm,-,N/A,,Overcast,0,2013-05-16 08:16:00
12:36 AM,37.4,28.4,70,29.70,10.0,Calm,Calm,-,N/A,,Overcast,0,2013-05-16 08:36:00
12:56 AM,37.4,28.4,70,29.70,10.0,Calm,Calm,-,N/A,,Overcast,0,2013-05-16 08:56:00
1:16 AM,35.6,28.4,75,29.69,10.0,WNW,3.5,-,N/A,,Overcast,290,2013-05-16 09:16:00
1:36 AM,35.6,28.4,75,29.68,10.0,Calm,Calm,-,N/A,,Overcast,0,2013-05-16 09:36:00
1:56 AM,35.6,28.4,75,29.68,10.0,Calm,Calm,-,N/A,,Overcast,0,2013-05-16 09:56:00
2:16 AM,35.6,28.4,75,29.68,10.0,Calm,Calm,-,N/A,,Overcast,0,2013-05-16 10:16:00
2:36 AM,33.8,26.6,75,29.67,10.0,Calm,Calm,-,N/A,,Overcast,0,2013-05-16 10:36:00
2:56 AM,33.8,28.4,81,29.67,10.0,West,3.5,-,N/A,,Overcast,260,2013-05-16 10:56:00
3:16 AM,35.6,26.6,70,29.66,10.0,Calm,Calm,-,N/A,,Overcast,0,2013-05-16 11:16:00
3:36 AM,35.6,28.4,75,29.66,10.0,East,8.1,-,N/A,,Mostly Cloudy,100,2013-05-16 11:36:00
3:56 AM,37.4,28.4,70,29.66,10.0,East,5.8,-,N/A,,Overcast,100,2013-05-16 11:56:00
4:16 AM,37.4,32.0,81,29.65,10.0,ENE,4.6,-,N/A,,Overcast,70,2013-05-16 12:16:00
4:36 AM,37.4,32.0,81,29.65,10.0,ENE,6.9,-,N/A,,Overcast,60,2013-05-16 12:36:00
4:56 AM,37.4,32.0,81,29.64,10.0,NE,6.9,-,N/A,,Overcast,40,2013-05-16 12:56:00
5:16 AM,37.4,32.0,81,29.64,10.0,NNE,4.6,-,N/A,,Overcast,30,2013-05-16 13:16:00
5:36 AM,37.4,32.0,81,29.63,10.0,NNE,3.5,-,N/A,,Overcast,30,2013-05-16 13:36:00
5:56 AM,37.4,32.0,81,29.62,10.0,NNE,5.8,-,N/A,,Overcast,20,2013-05-16 13:56:00
6:16 AM,37.4,32.0,81,29.62,10.0,NNE,3.5,-,N/A,,Overcast,30,2013-05-16 14:16:00
6:36 AM,37.4,32.0,81,29.61,10.0,NNE,5.8,-,N/A,,Overcast,20,2013-05-16 14:36:00
6:56 AM,35.6,32.0,87,29.61,10.0,North,6.9,-,N/A,,Overcast,10,2013-05-16 14:56:00
7:16 AM,35.6,32.0,87,29.60,10.0,North,5.8,-,N/A,,Overcast,10,2013-05-16 15:16:00
7:36 AM,35.6,32.0,87,29.60,10.0,NNE,6.9,-,N/A,,Overcast,30,2013-05-16 15:36:00
7:56 AM,35.6,32.0,87,29.60,10.0,NNE,8.1,-,N/A,,Overcast,30,2013-05-16 15:56:00
8:16 AM,35.6,32.0,87,29.59,10.0,NNE,8.1,-,N/A,,Overcast,30,2013-05-16 16:16:00
8:36 AM,35.6,32.0,87,29.59,10.0,NNE,9.2,-,N/A,,Overcast,30,2013-05-16 16:36:00
8:56 AM,35.6,32.0,87,29.58,10.0,NE,5.8,-,N/A,,Overcast,40,2013-05-16 16:56:00
9:16 AM,35.6,32.0,87,29.58,10.0,North,-9999.0,-,N/A,,Mostly Cloudy,0,2013-05-16 17:16:00
9:36 AM,35.6,33.8,93,29.57,10.0,NNE,8.1,-,N/A,,Mostly Cloudy,30,2013-05-16 17:36:00
9:56 AM,35.6,32.0,87,29.57,10.0,NNE,10.4,-,N/A,,Mostly Cloudy,20,2013-05-16 17:56:00
10:16 AM,35.6,32.0,87,29.56,-9999.0,NNE,10.4,17.3,N/A,,Overcast,30,2013-05-16 18:16:00
10:36 AM,35.6,33.8,93,29.56,10.0,NNE,9.2,-,N/A,,Overcast,30,2013-05-16 18:36:00
10:56 AM,35.6,32.0,87,29.55,10.0,NNE,6.9,-,N/A,,Overcast,20,2013-05-16 18:56:00
11:16 AM,35.6,33.8,93,29.55,10.0,NNE,6.9,-,N/A,,Mostly Cloudy,20,2013-05-16 19:16:00
11:36 AM,37.4,33.8,87,29.54,10.0,NNE,8.1,-,N/A,,Overcast,30,2013-05-16 19:36:00
11:56 AM,37.4,33.8,87,29.54,10.0,NNE,6.9,-,N/A,,Overcast,20,2013-05-16 19:56:00
12:16 PM,37.4,33.8,87,29.54,10.0,NNE,3.5,-,N/A,,Overcast,30,2013-05-16 20:16:00
12:36 PM,37.4,33.8,87,29.53,10.0,NNE,6.9,-,N/A,,Overcast,20,2013-05-16 20:36:00
12:56 PM,37.4,33.8,87,29.53,10.0,NNE,6.9,-,N/A,,Overcast,30,2013-05-16 20:56:00
1:16 PM,37.4,33.8,87,29.52,10.0,NNE,8.1,-,N/A,,Overcast,20,2013-05-16 21:16:00
1:36 PM,37.4,33.8,87,29.52,10.0,NNE,6.9,-,N/A,,Overcast,20,2013-05-16 21:36:00
1:56 PM,37.4,33.8,87,29.51,10.0,NNE,4.6,-,N/A,,Overcast,20,2013-05-16 21:56:00
2:16 PM,37.4,33.8,87,29.51,10.0,NNE,5.8,-,N/A,,Overcast,20,2013-05-16 22:16:00
2:36 PM,39.2,35.6,87,29.51,10.0,NNW,6.9,-,N/A,,Overcast,340,2013-05-16 22:36:00
2:56 PM,39.2,35.6,87,29.50,10.0,North,6.9,-,N/A,,Overcast,360,2013-05-16 22:56:00
3:16 PM,39.2,35.6,87,29.50,10.0,North,8.1,-,N/A,,Overcast,360,2013-05-16 23:16:00
3:36 PM,39.2,35.6,87,29.50,10.0,NNE,4.6,-,N/A,,Overcast,20,2013-05-16 23:36:00
3:56 PM,39.2,35.6,87,29.50,10.0,NNW,3.5,-,N/A,,Overcast,340,2013-05-16 23:56:00
4:16 PM,39.2,35.6,87,29.49,10.0,NNW,5.8,-,N/A,,Overcast,340,2013-05-17 00:16:00
4:36 PM,39.2,35.6,87,29.49,10.0,NW,3.5,-,N/A,,Mostly Cloudy,320,2013-05-17 00:36:00
4:56 PM,39.2,35.6,87,29.49,10.0,North,3.5,-,N/A,,Overcast,350,2013-05-17 00:56:00
5:16 PM,39.2,35.6,87,29.49,10.0,North,4.6,-,N/A,,Overcast,10,2013-05-17 01:16:00
5:36 PM,39.2,35.6,87,29.48,10.0,Calm,Calm,-,N/A,,Mostly Cloudy,0,2013-05-17 01:36:00
5:56 PM,39.2,35.6,87,29.47,10.0,North,3.5,-,N/A,,Overcast,360,2013-05-17 01:56:00
6:16 PM,39.2,35.6,87,29.47,10.0,NNW,4.6,-,N/A,,Overcast,340,2013-05-17 02:16:00
6:36 PM,39.2,37.4,93,29.46,10.0,NNW,5.8,-,N/A,,Overcast,330,2013-05-17 02:36:00
6:56 PM,39.2,35.6,87,29.45,10.0,NNW,6.9,-,N/A,,Overcast,340,2013-05-17 02:56:00
7:16 PM,39.2,35.6,87,29.45,10.0,NNW,4.6,-,N/A,,Overcast,330,2013-05-17 03:16:00
7:36 PM,39.2,35.6,87,29.45,10.0,North,4.6,-,N/A,,Overcast,360,2013-05-17 03:36:00
7:56 PM,39.2,35.6,87,29.44,10.0,NNW,5.8,-,N/A,,Overcast,330,2013-05-17 03:56:00
8:16 PM,39.2,35.6,87,29.44,10.0,NNW,4.6,-,N/A,,Overcast,340,2013-05-17 04:16:00
8:36 PM,39.2,35.6,87,29.44,10.0,NW,4.6,-,N/A,,Overcast,310,2013-05-17 04:36:00
8:56 PM,39.2,35.6,87,29.44,10.0,NW,4.6,-,N/A,,Overcast,320,2013-05-17 04:56:00
9:16 PM,39.2,35.6,87,29.44,10.0,WNW,5.8,-,N/A,,Overcast,300,2013-05-17 05:16:00
9:36 PM,39.2,35.6,87,29.45,10.0,Calm,Calm,-,N/A,,Overcast,0,2013-05-17 05:36:00
9:56 PM,39.2,35.6,87,29.45,6.0,Calm,Calm,-,N/A,,Overcast,0,2013-05-17 05:56:00
10:16 PM,37.4,35.6,93,29.45,8.0,Calm,Calm,-,0.01,,Overcast,0,2013-05-17 06:16:00
10:36 PM,37.4,35.6,93,29.44,6.0,Calm,Calm,-,0.02,,Overcast,0,2013-05-17 06:36:00
10:56 PM,37.4,35.6,93,29.44,5.0,ENE,3.5,-,0.03,,Overcast,60,2013-05-17 06:56:00
11:16 PM,37.4,35.6,93,29.44,10.0,Calm,Calm,-,0.01,,Overcast,0,2013-05-17 07:16:00
11:36 PM,37.4,35.6,93,29.43,8.0,East,3.5,-,0.02,,Overcast,90,2013-05-17 07:36:00
11:56 PM,37.4,35.6,93,29.43,7.0,East,5.8,-,0.02,,Overcast,80,2013-05-17 07:56:00